Вернуться в каталог

STARLINK-30401

АктивенСвязьVLEO
NORAD 57818·PAYLOAD·🇺🇸 United States

Запущен Sep 9, 2023 с Cape Canaveral Space Force Station

Loading…

Ближайшие Пролёты (ближайшие 24 часа)

TLE

СвежийSource: CelesTrak SupGP

Эпоха: Sep 15, 2026, 02:45 UTC

1 57818C 23138L   26258.11506944 -.00043136  00000+0 -15625-2 0  2586
2 57818  43.0000 244.7321 0001349 266.4525 128.2671 15.27596935    18

Отслеживайте STARLINK-30401 в реальном времени с AllMySat

Download on the App Store